Location: Andrest
(43.3200°N, 0.0641°E)
Time: 08:59:42
(UTC+00:00)

COSMO-SKYMED 1 - Pass Details

Date: 01 December 2020
Orbit: 621 x 623 km, 97.9° (Epoch: 23 January)

Event Time Altitude Azimuth Distance (km) Brightness Sun altitude
Exits shadow 17:22:45 - 34° (NE) 2,123 4.8 -10.3°
Reaches altitude 10° 17:23:06 10° 37° (NE) 2,003 4.7 -10.4°
Maximum altitude 17:26:49 27° 95° (E) 1,203 3.5 -11.0°
Drops below altitude 10° 17:30:30 10° 154° (SSE) 1,988 5.1 -11.6°
Sets 17:32:57 0° 166° (SSE) 2,888 6.1 -12.1°
